• In Denmark
  • List of Countries
  • For 7 days
  • Water Temperature
  • Satellite Maps
  • Weather Map
  • Weather Widgets
  • user-avatar
    Login

    Hourly Weather Patna

    Today, 20 November, Monday

    Time Temperature Precipitation Wind Pressure Humidity
    00:00 +25°C° 0 mm 2 mps 754 mmHg 47%
    01:00 +25°C° 0 mm 3 mps 754 mmHg 47%
    02:00 +25°C° 0 mm 3 mps 753 mmHg 47%
    03:00 +24°C° 0 mm 3 mps 753 mmHg 48%
    04:00 +24°C° 0 mm 3 mps 753 mmHg 49%
    05:00 +22°C° 0 mm 3 mps 753 mmHg 51%
    06:00 +23°C° 0 mm 2 mps 754 mmHg 59%
    07:00 +24°C° 0 mm 2 mps 754 mmHg 56%
    08:00 +25°C° 0 mm 2 mps 755 mmHg 54%
    09:00 +26°C° 0 mm 3 mps 755 mmHg 51%
    10:00 +28°C° 0 mm 3 mps 755 mmHg 46%
    11:00 +30°C° 0 mm 4 mps 755 mmHg 40%
    12:00 +33°C° 0 mm 4 mps 755 mmHg 35%
    13:00 +33°C° 0 mm 5 mps 754 mmHg 34%
    14:00 +33°C° 0 mm 5 mps 754 mmHg 33%
    15:00 +34°C° 0 mm 5 mps 753 mmHg 33%
    16:00 +32°C° 0 mm 5 mps 753 mmHg 35%
    17:00 +29°C° 0 mm 4 mps 752 mmHg 37%
    18:00 +28°C° 0 mm 3 mps 752 mmHg 40%
    19:00 +27°C° 0 mm 3 mps 753 mmHg 40%
    20:00 +26°C° 0 mm 4 mps 753 mmHg 41%
    21:00 +25°C° 0 mm 4 mps 753 mmHg 42%
    22:00 +25°C° 0 mm 4 mps 753 mmHg 42%
    23:00 +23°C° 0 mm 4 mps 753 mmHg 42%

    Tomorrow, 21 November, Tuesday

    Time Temperature Precipitation Wind Pressure Humidity
    00:00 +22°C° 0 mm 4 mps 754 mmHg 42%
    01:00 +22°C° 0 mm 4 mps 753 mmHg 43%
    02:00 +21°C° 0 mm 4 mps 753 mmHg 43%
    03:00 +21°C° 0 mm 4 mps 753 mmHg 43%
    04:00 +20°C° 0 mm 4 mps 753 mmHg 43%
    05:00 +19°C° 0 mm 3 mps 754 mmHg 43%
    06:00 +19°C° 0 mm 3 mps 754 mmHg 43%
    07:00 +20°C° 0 mm 4 mps 755 mmHg 39%
    08:00 +21°C° 0 mm 4 mps 755 mmHg 36%
    09:00 +22°C° 0 mm 4 mps 756 mmHg 33%
    10:00 +25°C° 0 mm 4 mps 756 mmHg 28%
    11:00 +27°C° 0 mm 4 mps 756 mmHg 24%
    12:00 +28°C° 0 mm 4 mps 756 mmHg 20%
    13:00 +28°C° 0 mm 4 mps 755 mmHg 19%
    14:00 +29°C° 0 mm 4 mps 754 mmHg 19%
    15:00 +29°C° 0 mm 4 mps 753 mmHg 18%
    16:00 +27°C° 0 mm 4 mps 753 mmHg 21%
    17:00 +26°C° 0 mm 3 mps 753 mmHg 23%
    18:00 +24°C° 0 mm 3 mps 753 mmHg 26%
    19:00 +22°C° 0 mm 3 mps 754 mmHg 26%
    20:00 +21°C° 0 mm 3 mps 754 mmHg 27%
    21:00 +21°C° 0 mm 3 mps 754 mmHg 28%
    22:00 +20°C° 0 mm 3 mps 754 mmHg 29%
    23:00 +19°C° 0 mm 3 mps 754 mmHg 30%

    Day after tomorrow, 22 November, Wednesday

    Time Temperature Precipitation Wind Pressure Humidity
    00:00 +19°C° 0 mm 3 mps 754 mmHg 31%
    01:00 +18°C° 0 mm 3 mps 754 mmHg 32%
    02:00 +18°C° 0 mm 2 mps 754 mmHg 33%
    03:00 +18°C° 0 mm 2 mps 753 mmHg 34%
    04:00 +17°C° 0 mm 2 mps 753 mmHg 35%
    05:00 +17°C° 0 mm 2 mps 753 mmHg 36%
    06:00 +16°C° 0 mm 2 mps 753 mmHg 38%
    07:00 +17°C° 0 mm 2 mps 754 mmHg 37%
    08:00 +19°C° 0 mm 3 mps 755 mmHg 36%
    09:00 +20°C° 0 mm 3 mps 756 mmHg 35%
    10:00 +22°C° 0 mm 3 mps 756 mmHg 32%
    11:00 +25°C° 0 mm 3 mps 755 mmHg 29%
    12:00 +26°C° 0 mm 3 mps 755 mmHg 26%
    13:00 +27°C° 0 mm 3 mps 754 mmHg 25%
    14:00 +27°C° 0 mm 3 mps 754 mmHg 24%
    15:00 +28°C° 0 mm 3 mps 753 mmHg 23%
    16:00 +26°C° 0 mm 3 mps 753 mmHg 26%
    17:00 +25°C° 0 mm 3 mps 752 mmHg 29%
    18:00 +23°C° 0 mm 2 mps 752 mmHg 33%
    19:00 +21°C° 0 mm 2 mps 753 mmHg 34%
    20:00 +21°C° 0 mm 2 mps 753 mmHg 35%
    21:00 +20°C° 0 mm 2 mps 753 mmHg 36%
    22:00 +20°C° 0 mm 2 mps 753 mmHg 37%
    23:00 +19°C° 0 mm 2 mps 753 mmHg 38%

    23 November, Thursday

    Time Temperature Precipitation Wind Pressure Humidity
    00:00 +19°C° 0 mm 2 mps 753 mmHg 38%
    01:00 +18°C° 0 mm 2 mps 753 mmHg 39%
    02:00 +18°C° 0 mm 2 mps 753 mmHg 40%
    03:00 +17°C° 0 mm 2 mps 753 mmHg 40%
    04:00 +17°C° 0 mm 2 mps 753 mmHg 41%
    05:00 +16°C° 0 mm 2 mps 753 mmHg 41%
    06:00 +16°C° 0 mm 2 mps 753 mmHg 42%
    07:00 +17°C° 0 mm 2 mps 754 mmHg 40%
    08:00 +19°C° 0 mm 2 mps 755 mmHg 38%
    09:00 +20°C° 0 mm 2 mps 755 mmHg 36%
    10:00 +23°C° 0 mm 2 mps 755 mmHg 33%
    11:00 +24°C° 0 mm 2 mps 755 mmHg 30%
    12:00 +26°C° 0 mm 2 mps 755 mmHg 27%
    13:00 +27°C° 0 mm 2 mps 754 mmHg 26%
    14:00 +27°C° 0 mm 2 mps 754 mmHg 25%
    15:00 +28°C° 0 mm 2 mps 753 mmHg 24%
    16:00 +26°C° 0 mm 2 mps 753 mmHg 26%
    17:00 +25°C° 0 mm 2 mps 753 mmHg 29%
    18:00 +23°C° 0 mm 1 mps 753 mmHg 32%
    19:00 +23°C° 0 mm 2 mps 754 mmHg 33%
    20:00 +21°C° 0 mm 2 mps 754 mmHg 34%
    21:00 +20°C° 0 mm 2 mps 755 mmHg 35%
    22:00 +20°C° 0 mm 2 mps 755 mmHg 36%
    23:00 +19°C° 0 mm 2 mps 755 mmHg 36%

    24 November, Friday

    Time Temperature Precipitation Wind Pressure Humidity
    00:00 +19°C° 0 mm 2 mps 755 mmHg 37%
    01:00 +18°C° 0 mm 2 mps 754 mmHg 38%
    02:00 +19°C° 0 mm 1 mps 754 mmHg 39%
    03:00 +18°C° 0 mm 1 mps 754 mmHg 40%
    04:00 +18°C° 0 mm 1 mps 754 mmHg 41%
    05:00 +18°C° 0 mm 1 mps 754 mmHg 41%
    06:00 +16°C° 0 mm 1 mps 754 mmHg 42%
    07:00 +19°C° 0 mm 1 mps 755 mmHg 40%
    08:00 +20°C° 0 mm 1 mps 756 mmHg 38%
    09:00 +21°C° 0 mm 1 mps 756 mmHg 37%
    10:00 +23°C° 0 mm 2 mps 756 mmHg 33%
    11:00 +25°C° 0 mm 2 mps 756 mmHg 30%
    12:00 +26°C° 0 mm 2 mps 756 mmHg 27%
    13:00 +27°C° 0 mm 2 mps 755 mmHg 26%
    14:00 +27°C° 0 mm 2 mps 755 mmHg 24%
    15:00 +28°C° 0 mm 2 mps 754 mmHg 23%
    16:00 +26°C° 0 mm 2 mps 754 mmHg 25%
    17:00 +25°C° 0 mm 2 mps 754 mmHg 28%
    18:00 +23°C° 0 mm 2 mps 754 mmHg 30%
    19:00 +23°C° 0 mm 2 mps 754 mmHg 31%
    20:00 +21°C° 0 mm 2 mps 755 mmHg 32%
    21:00 +20°C° 0 mm 2 mps 755 mmHg 33%
    22:00 +20°C° 0 mm 2 mps 755 mmHg 34%
    23:00 +19°C° 0 mm 2 mps 755 mmHg 35%

    25 November, Saturday

    Time Temperature Precipitation Wind Pressure Humidity
    00:00 +20°C° 0 mm 1 mps 755 mmHg 35%
    01:00 +19°C° 0 mm 1 mps 755 mmHg 36%
    02:00 +19°C° 0 mm 1 mps 755 mmHg 37%
    03:00 +18°C° 0 mm 1 mps 755 mmHg 38%
    04:00 +18°C° 0 mm 1 mps 755 mmHg 38%
    05:00 +18°C° 0 mm 1 mps 755 mmHg 39%
    06:00 +16°C° 0 mm 1 mps 755 mmHg 40%
    07:00 +18°C° 0 mm 1 mps 756 mmHg 38%
    08:00 +20°C° 0 mm 1 mps 757 mmHg 36%
    09:00 +21°C° 0 mm 1 mps 757 mmHg 34%
    10:00 +23°C° 0 mm 1 mps 757 mmHg 31%
    11:00 +25°C° 0 mm 1 mps 757 mmHg 28%
    12:00 +27°C° 0 mm 1 mps 757 mmHg 24%
    13:00 +27°C° 0 mm 1 mps 756 mmHg 23%
    14:00 +27°C° 0 mm 1 mps 756 mmHg 21%
    15:00 +28°C° 0 mm 1 mps 755 mmHg 20%
    16:00 +26°C° 0 mm 1 mps 755 mmHg 22%
    17:00 +25°C° 0 mm 1 mps 755 mmHg 24%
    18:00 +23°C° 0 mm 1 mps 755 mmHg 27%
    19:00 +23°C° 0 mm 1 mps 756 mmHg 28%
    20:00 +22°C° 0 mm 1 mps 756 mmHg 29%
    21:00 +22°C° 0 mm 1 mps 757 mmHg 29%
    22:00 +21°C° 0 mm 1 mps 757 mmHg 30%
    23:00 +21°C° 0 mm 1 mps 756 mmHg 31%
    Show more